NOAA 16 DEB, 42356

Orbit data source: Space-Track

NOAA 16 DEB, 42356 is space debris in SSO originally from a launch on Thu, 21 Sep 2000 UTC launched from the Air Force Western Test Range (AFWTR). Debris objects in space refer to the collection of defunct objects orbiting the Earth. Examples of debris include non-operational satellites, rocket bodies, and fragments generated from explosions, collisions, or faulty payload assembly.

Loading next visibility...
Identifier
42356, 2000-055QY
Orbit
SSO
Country
Flag of USUS
Related business
Manufacturer
Unknown
Mission
Spacecraft
Bus & Motor
Unknown
Mass
Unknown
Launch date (UTC)
2000-09-21 (26 years ago)
Launch vehicle
Unknown
Launch site
Air Force Western Test Range (AFWTR)
Object type
Payload
Rocket body
Debris
Shape & HBR
Unknown shape, 0.1 m
Radar Cross Section
Medium (>0.1 m² and <1 m²)

Expand to show TLE details & history
Last TLE update: 1 day ago

TLE from 1 day ago
0 NOAA 16 DEB
1 42356U 00055QY  26219.35041409  .00004227  00000-0  87230-3 0  9994
2 42356  98.9168  39.5533 0019901  46.1545 314.1294 14.60882969545085
Epoch: 2026-08-07T08:24Z
TLE epoch observation values (Epoch: 2026-08-07T08:24:35.777Z)
Latitude
-0.00001°
Longitude
-42.47314°
Altitude
683.506 km
Speed
7.52 km/s
True Right ascension
02h 38m 12s
True Declination
0° 00' 00"
Sunlit
Object was in daylight at epoch
Visualization orbit readout
Latitude
Unknown
Longitude
Unknown
Altitude
Unknown
Speed
Unknown
Apparent Right ascension
Unknown
Apparent Declination
Unknown
Sunlit
N/A
Visualization observer readout
Local Sidereal Time
00:46:27
Azimuth
Unknown
Elevation
Unknown
Doppler factor
Unknown
Orbital elements
Apogee altitude
701.5 km
Perigee altitude
673.378 km
Semi-major axis
7,065.576 km
Eccentricity
0.00199
Inclination
98.9168°
RAAN
39.5533°
Arg. of periapsis
46.1545°
True anomaly
313.96543°
Mean anomaly
314.1294°
Eccentric anomaly
314.04744°
Mean motion
3.65445 °/min
Orbital period
98.51 mins
BSTAR
0.0008723
Loading maneuver chart data...
Computing Atmospheric mass density...
Loading historical data...
Loading historical data...
Loading historical data...
Loading historical data...
Loading historical data...
Loading historical data...
Loading historical data...

Documentation

Showing up to 5 results
|